Winner, SD

1:09 PM CST on November 20, 2019 (GMT -0600)
Winner

Weather History for KICR - October, 2019

Change the Weather History Date:

Tuesday, October 22, 2019

  Actual Average Record
Temperature  
Mean Temperature 46 °F 48 °F  
Max Temperature 57 °F 60 °F 82 °F (2016)
Min Temperature 34 °F 37 °F 33 °F (2007)
Degree Days  
Heating Degree Days 19 17  
Month to date heating degree days 373 285  
Since 1 July heating degree days 427 427  
Cooling Degree Days 0 0  
Month to date cooling degree days 0 9  
Year to date cooling degree days 865 915  
Moisture  
Dew Point 29 °F    
Average Humidity 58    
Maximum Humidity 82    
Minimum Humidity 30    
Precipitation  
Precipitation T in 0.06 in 0.59 in (2008)
Month to date precipitation 0.80 1.26  
Year to date precipitation 24.30 20.25  
Sea Level Pressure  
Sea Level Pressure 29.92 in    
Wind  
Wind Speed 11 mph ()    
Max Wind Speed 24 mph    
Max Gust Speed 36 mph    
Visibility 10.0 miles    
Events      
T = Trace of Precipitation, MM = Missing Value Source: Averaged Metar Reports

Daily Weather History Graph

Daily Weather History Graph

Search for Another Location

Airport or City:

Astronomy

Oct. 22, 2019 Rise Set
Actual Time 8:01 AM CDT 6:45 PM CDT
Civil Twilight 7:32 AM CDT 7:14 PM CDT
Nautical Twilight 6:59 AM CDT 7:47 PM CDT
Astronomical Twilight 6:26 AM CDT 8:20 PM CDT
Moon 12:58 AM CDT (10/22) 4:09 PM CDT (10/22)
Length of Visible Light 11h 41m
Length of Day
10h 43m
Last Quarter, 37% of the Moon is Illuminated
Oct 22
Last Quarter
Oct 27
New
Nov 4
First Quarter
Nov 12
Full
Nov 19
Last Quarter

Hourly Weather History & Observations

Time (CDT) Temp. Windchill Dew Point Humidity Pressure Visibility Wind Dir Wind Speed Gust Speed Precip Events Conditions
12:53 AM 34.0 °F 27.2 °F 28.0 °F 79% 29.96 in 10.0 mi NW 8.1 mph - N/A   Clear
1:53 AM 36.0 °F 27.1 °F 28.0 °F 73% 29.96 in 10.0 mi West 13.8 mph - N/A   Clear
2:53 AM 35.1 °F 25.9 °F 28.0 °F 76% 29.96 in 10.0 mi West 13.8 mph 23.0 mph N/A   Clear
3:53 AM 35.1 °F 25.5 °F 28.0 °F 76% 29.97 in 10.0 mi West 15.0 mph - N/A   Clear
4:53 AM 35.1 °F 25.5 °F 27.0 °F 72% 29.98 in 10.0 mi West 15.0 mph - N/A   Clear
5:53 AM 36.0 °F 26.3 °F 27.0 °F 70% 29.99 in 10.0 mi West 16.1 mph - N/A   Clear
6:53 AM 35.1 °F 27.4 °F 27.0 °F 72% 30.00 in 10.0 mi West 10.4 mph - N/A   Clear
7:53 AM 34.0 °F 25.5 °F 27.0 °F 75% 29.99 in 10.0 mi West 11.5 mph - N/A   Clear
8:53 AM 36.0 °F 29.0 °F 28.9 °F 76% 29.99 in 10.0 mi West 9.2 mph - N/A   Scattered Clouds
9:53 AM 42.1 °F 34.9 °F 30.0 °F 62% 29.99 in 10.0 mi West 13.8 mph - N/A   Scattered Clouds
10:53 AM 46.9 °F - 28.9 °F 50% 29.98 in 10.0 mi West 12.7 mph - N/A   Partly Cloudy
11:53 AM 48.9 °F - 33.1 °F 54% 29.96 in 10.0 mi West 16.1 mph - N/A   Clear
12:53 PM 53.1 °F - 32.0 °F 45% 29.94 in 10.0 mi WNW 17.3 mph 27.6 mph N/A   Clear
1:53 PM 55.0 °F - 30.9 °F 40% 29.90 in 10.0 mi WNW 15.0 mph 24.2 mph N/A   Clear
2:53 PM 55.9 °F - 26.1 °F 32% 29.87 in 10.0 mi WNW 19.6 mph 35.7 mph N/A   Scattered Clouds
3:53 PM 55.9 °F - 27.0 °F 33% 29.86 in 10.0 mi NW 21.9 mph 28.8 mph N/A   Clear
4:53 PM 57.9 °F - 26.1 °F 30% 29.85 in 10.0 mi WNW 17.3 mph - N/A   Scattered Clouds
5:53 PM 54.0 °F - 26.1 °F 34% 29.86 in 10.0 mi WNW 10.4 mph - N/A   Clear
6:53 PM 51.1 °F - 27.0 °F 39% 29.86 in 10.0 mi WNW 9.2 mph - N/A   Clear
7:53 PM 46.0 °F 43.1 °F 30.0 °F 54% 29.85 in 10.0 mi SW 5.8 mph - N/A   Partly Cloudy
8:53 PM 44.1 °F 42.5 °F 30.0 °F 58% 29.84 in 10.0 mi SSE 3.5 mph - N/A   Mostly Cloudy
9:53 PM 45.0 °F 41.8 °F 30.0 °F 56% 29.83 in 10.0 mi South 5.8 mph - N/A   Mostly Cloudy
10:53 PM 41.0 °F 36.4 °F 30.0 °F 65% 29.80 in 10.0 mi SE 6.9 mph - N/A   Scattered Clouds
11:53 PM 43.0 °F 38.8 °F 32.0 °F 65% 29.78 in 10.0 mi SSE 6.9 mph - N/A   Overcast